ORBCOMM FM110 [+]

Last updated on Fri Dec 29 2023 00:02:54 GMT+0000 (Coordinated Universal Time)

1 41182U 15081D 23362.17981298 .00001832 00000+0 44803-3 0 9997 2 41182 47.0026 298.4948 0001987 253.9607 106.1059 14.56209287426208
UTC large
Height (km)
Speed (km/s)
/
Latitude / Longitude
Inclination (degrees)
Orbital Period (minutes)
Azimuth
Elevation
Range (km)
Doppler Factor

Next 0 passes for location: London (51.5072 / 0.1276)

Sorry there are no passes over London.